Weather History for EGTE - September, 2013

Change the Weather History Date:

Saturday, September 21, 2013

  Actual Average Record
Temperature  
Mean Temperature 58 °F -  
Max Temperature 70 °F 60 °F 75 °F (2006)
Min Temperature 46 °F 46 °F 41 °F (2001)
Degree Days  
Heating Degree Days 7    
Growing Degree Days 8 (Base 50)    
Moisture  
Dew Point 59 °F    
Average Humidity 89    
Maximum Humidity 100    
Minimum Humidity 74    
Precipitation  
Precipitation 0.00 in - - ()
Sea Level Pressure  
Sea Level Pressure 30.24 in    
Wind  
Wind Speed 4 mph ()    
Max Wind Speed 10 mph    
Max Gust Speed -    
Visibility 6.0 miles    
Events Rain    
Averages and records for this station are not official NWS values.
T = Trace of Precipitation, MM = Missing Value Source: Averaged Metar Reports

Daily Weather History Graph

Daily Weather History Graph

Search for Another Location

Airport or City:

Trip Planner

Search our weather history database for the weather conditions in past years. The results will help you decide how hot, cold, wet, or windy it might be!

Date:

Astronomy

Sep. 21, 2013 Rise Set
Actual Time 6:58 AM BST 7:13 PM BST
Civil Twilight 6:25 AM BST 7:46 PM BST
Nautical Twilight 5:46 AM BST 8:25 PM BST
Astronomical Twilight 5:06 AM BST 9:05 PM BST
Moon 7:55 PM BST (9/21) 9:19 AM BST (9/21)
Length of Visible Light 13h 21m
Length of Day
12h 15m
Waning Gibbous, 95% of the Moon is Illuminated
Sep 21
Waning Gibbous
Sep 27
Last Quarter
Oct 5
New
Oct 12
First Quarter
Oct 19
Full

Hourly Weather History & Observations

Time (BST) Temp. Dew Point Humidity Pressure Visibility Wind Dir Wind Speed Gust Speed Precip Events Conditions
12:20 AM 48.2 °F 46.4 °F 93% 30.18 in 6.2 mi East 3.5 mph - N/A   Partly Cloudy
12:50 AM 49 °F 48 °F 96%  in - Calm Calm - -  
12:50 AM 48.2 °F 46.4 °F 93% 30.18 in 6.2 mi NNW 2.3 mph - N/A   Partly Cloudy
1:20 AM 48.2 °F 46.4 °F 93% 30.18 in 6.2 mi Variable 3.5 mph - N/A   Partly Cloudy
1:50 AM 48.2 °F 46.4 °F 93% 30.18 in 6.2 mi Variable 3.5 mph - N/A   Mostly Cloudy
2:20 AM 48.2 °F 48.2 °F 100% 30.18 in 6.2 mi Variable 2.3 mph - N/A   Mostly Cloudy
3:50 AM 52 °F 51 °F 93%  in - Calm Calm - -  
6:20 AM 57.2 °F 53.6 °F 88% 30.18 in 6.2 mi South 9.2 mph - N/A   Mostly Cloudy
6:50 AM 57 °F 54 °F 88%  in - Calm Calm - -  
6:50 AM 57.2 °F 55.4 °F 94% 30.18 in 6.2 mi South 10.4 mph - N/A   Mostly Cloudy
7:20 AM 57.2 °F 55.4 °F 94% 30.18 in 6.2 mi South 9.2 mph - N/A   Mostly Cloudy
7:50 AM 57.2 °F 55.4 °F 94% 30.18 in 6.2 mi South 10.4 mph - N/A   Mostly Cloudy
8:20 AM 57.2 °F 55.4 °F 94% 30.21 in 6.2 mi South 8.1 mph - N/A   Mostly Cloudy
8:50 AM 59.0 °F 57.2 °F 94% 30.21 in 6.2 mi South 8.1 mph - N/A   Mostly Cloudy
9:20 AM 59.0 °F 57.2 °F 94% 30.21 in 6.2 mi South 9.2 mph - N/A   Mostly Cloudy
9:50 AM 60 °F 58 °F 90%  in - Calm Calm - -  
9:50 AM 60.8 °F 59.0 °F 94% 30.21 in 6.2 mi South 8.1 mph - N/A   Scattered Clouds
10:20 AM 62.6 °F 59.0 °F 88% 30.21 in 6.2 mi South 9.2 mph - N/A   Scattered Clouds
10:50 AM 62.6 °F 59.0 °F 88% 30.21 in 6.2 mi South 9.2 mph - N/A   Scattered Clouds
11:20 AM 64.4 °F 60.8 °F 88% 30.21 in 6.2 mi South 6.9 mph - N/A   Scattered Clouds
11:50 AM 64.4 °F 60.8 °F 88% 30.24 in 6.2 mi SSW 5.8 mph - N/A   Scattered Clouds
12:20 PM 66.2 °F 60.8 °F 83% 30.24 in 6.2 mi South 5.8 mph - N/A   Scattered Clouds
12:50 PM 68 °F 62 °F 74%  in - Calm Calm - -  
12:50 PM 66.2 °F 60.8 °F 83% 30.24 in 6.2 mi SSW 4.6 mph - N/A   Scattered Clouds
1:20 PM 68.0 °F 62.6 °F 83% 30.24 in 6.2 mi Variable 2.3 mph - N/A   Mostly Cloudy
1:50 PM 68.0 °F 62.6 °F 83% 30.24 in 6.2 mi Variable 2.3 mph - N/A   Mostly Cloudy
2:20 PM 68.0 °F 62.6 °F 83% 30.24 in 6.2 mi Variable 2.3 mph - N/A   Mostly Cloudy
2:50 PM 69.8 °F 62.6 °F 78% 30.24 in 6.2 mi ESE 5.8 mph - N/A   Mostly Cloudy
3:20 PM 68.0 °F 62.6 °F 83% 30.24 in 6.2 mi Variable 3.5 mph - N/A   Mostly Cloudy
3:50 PM 69 °F 63 °F 75%  in - Calm Calm - -  
3:50 PM 69.8 °F 62.6 °F 78% 30.24 in 6.2 mi Variable 1.2 mph - N/A   Mostly Cloudy
4:20 PM 69.8 °F 62.6 °F 78% 30.24 in 6.2 mi NW 1.2 mph - N/A   Mostly Cloudy
4:50 PM 69.8 °F 62.6 °F 78% 30.24 in 6.2 mi Variable 1.2 mph - N/A   Mostly Cloudy
5:50 PM 69.8 °F 64.4 °F 83% 30.24 in 6.2 mi South 4.6 mph - N/A   Mostly Cloudy
6:20 PM 68.0 °F 62.6 °F 83% 30.27 in 6.2 mi SSW 4.6 mph - N/A   Mostly Cloudy
6:50 PM 65 °F 63 °F 91%  in - Calm Calm - -  
6:50 PM 66.2 °F 62.6 °F 88% 30.27 in 6.2 mi ESE 3.5 mph - N/A   Mostly Cloudy
7:20 PM 66.2 °F 62.6 °F 88% 30.27 in 6.2 mi Calm Calm - N/A   Mostly Cloudy
7:50 PM 66.2 °F 62.6 °F 88% 30.30 in 6.2 mi Variable 2.3 mph - N/A   Mostly Cloudy
8:20 PM 64.4 °F 62.6 °F 94% 30.30 in 6.2 mi Variable 2.3 mph - N/A   Mostly Cloudy
8:50 PM 64.4 °F 62.6 °F 94% 30.30 in 6.2 mi Variable 3.5 mph - N/A   Mostly Cloudy
9:20 PM 64.4 °F 62.6 °F 94% 30.30 in 6.2 mi NW 4.6 mph - N/A   Mostly Cloudy
9:50 PM 65 °F 63 °F 89%  in - Calm Calm - -  
9:50 PM 64.4 °F 62.6 °F 94% 30.30 in 6.2 mi NW 3.5 mph - N/A   Mostly Cloudy
10:20 PM 64.4 °F 62.6 °F 94% 30.33 in 6.2 mi Variable 2.3 mph - N/A   Mostly Cloudy
10:50 PM 64.4 °F 62.6 °F 94% 30.33 in 2.5 mi Variable 2.3 mph - N/A Rain Light Rain
11:20 PM 64.4 °F 62.6 °F 94% 30.33 in 3.1 mi Calm Calm - N/A Rain Light Rain
11:50 PM 62.6 °F 62.6 °F 100% 30.33 in 3.7 mi North 2.3 mph - N/A Rain Light Rain